STARLINK-1121

decayed
NORAD ID: 44929 Int'l Des: 2020-001 Owner: SPXS Country: US Constellation: starlink
LEOCIRCULAR
Group

About STARLINK-1121

Description loading...

Altitude History

Altitude vs Time

uPlot chart will show altitude changes over time

Two-Line Element Set

1 44929U 20001R 24067.13878346 .12594055 11904-4 38401-2 0 9998
2 44929 53.0447 330.2587 0005482 213.2323 259.1903 16.26054304230337
Epoch: Mar 7, 2024 • Age: 13381 hours

Current Status

Position data unavailable
Launch Date Jan 7, 2020
Age 5.6 years
Decay Date Mar 7, 2024
Type internet

Technical Details

Classification Payload
Mass 260.00 kg
Dry Mass 248.00 kg
Total Mass 260.00 kg
Length 0.20 m
Diameter 2.80 m
Span 9.00 m
Shape Box + pan
Manufacturer SPXS
Bus Type Starlink
Phase Status Reentered
Owner/State SPXS/US

Large Constellations

Loading constellations...